MAKERSAT 0

Last updated on Wed Oct 29 2025 00:03:53 GMT+0000 (Coordinated Universal Time)

1 43016U 17073D 25301.62811281 .00028182 00000+0 10020-2 0 9997 2 43016 97.4931 178.6851 0134447 10.7815 349.6251 15.20712314431138
UTC large
Height (km)
Speed (km/s)
/
Latitude / Longitude
Inclination (degrees)
Orbital Period (minutes)
Azimuth
Elevation
Range (km)
Doppler Factor

Next 0 passes for location: London (51.5072 / 0.1276)

Sorry there are no passes over London.